Regional Weather Roundup
Issued by NWS

Home | Current Version | Previous Version | Text Only | Print | Product List | Glossary On
Versions: 1 2 3 4 5 6 7 8 9 10 11 12 13 14 15 16 17 18 19 20 21 22 23 24 25 26 27 28 29 30 31 32 33 34 35 36 37 38 39 40 41 42 43 44 45 46 47 48 49 50
236
ASUS45 KBOU 291907
RWRCO

WEATHER ROUNDUP FOR COLORADO
NATIONAL WEATHER SERVICE DENVER/BOULDER CO
100 PM MDT FRI APR 29 2016

NOTE: "FAIR" INDICATES FEW OR NO CLOUDS BELOW 12000 FEET WITH NO
SIGNIFICANT WEATHER AND/OR OBSTRUCTIONS TO VISIBILITY.

COZ001>005-013-030-031-292000-
...NORTHWEST COLORADO...

CITY           SKY/WX    TMP DP  RH WIND       PRES   REMARKS
CRAIG          LGT RAIN  44  36  73 N13       29.83F
HAYDEN         CLOUDY    43  32  65 W6        29.83F
MEEKER         CLOUDY    46  35  65 S12       29.82F
MOUNT WERNER   NOT AVBL
STEAMBOAT SPGS CLOUDY    40  33  76 SW7       29.83F
WALDEN         CLOUDY    34  32  93 NW5       29.87F WCI  30
$$

COZ006>008-011-292000-
...WEST CENTRAL VALLEYS...

CITY           SKY/WX    TMP DP  RH WIND       PRES   REMARKS
GRAND JUNCTION CLOUDY    53  35  50 NW9G25    29.81F
MONTROSE       CLOUDY    48  33  56 W3        29.85F
EAGLE          CLOUDY    39  37  93 CALM      29.86F
RIFLE          CLOUDY    52  30  43 W10       29.80F
DELTA          NOT AVBL
NUCLA          NOT AVBL
$$

COZ017>023-064>068-292000-
...SOUTHWEST COLORADO...

CITY           SKY/WX    TMP DP  RH WIND       PRES   REMARKS
DURANGO        FAIR      48  31  51 S7G18     29.83F
CORTEZ         PTSUNNY   50  31  48 SW12G23   29.84F
PAGOSA SPRINGS LGT RAIN  37  36  96 CALM      29.85F
TELLURIDE      CLOUDY    35  28  75 N3        29.89R
WOLF CREEK PAS SNOW      21  21 100 SW14      29.90F VSB 1/2 WCI   8
$$

COZ009-010-012-014-032>034-037-058>063-292000-
...CENTRAL COLORADO...

CITY           SKY/WX    TMP DP  RH WIND       PRES   REMARKS
ASPEN          LGT SNOW  35  33  92 N5        29.83F FOG     WCI  31
BUENA VISTA    LGT SNOW  32  29  89 SE5       29.87F WCI  27
COPPER MTN     NOT AVBL
BERTHOUD PASS  SNOW      18   9  68 E21       29.90S VSB<1/4 WCI   1
COTTONWOOD PAS LGT RAIN  32  30  93 CALM      29.87F
GUNNISON       CLOUDY    34  28  80 SE6       29.88S WCI  29
KREMMLING      LGT RAIN  36  32  87 NW5       29.86F
LEADVILLE      LGT SNOW  27  24  89 S6        29.84F FOG     WCI  20
MONARCH PASS   CLOUDY    19  18  93 NE13      29.97S WCI   7
SALIDA         CLOUDY    34  31  87 CALM      29.95F
SUNLIGHT       SNOW      30  28  93 CALM      29.91F VSB 1/4
WILKERSON PASS SNOW     N/A N/A N/A CALM      29.91F VSB 1/2
$$

COZ069>075-292000-
...SAN LUIS VALLEY/SANGRE DE CRISTO MOUNTAINS...

CITY           SKY/WX    TMP DP  RH WIND       PRES   REMARKS
ALAMOSA        CLOUDY    36  32  85 SE8       29.82F
LA VETA PASS   SNOW      32  28  86 MISG      29.85F VSB 1/4
SAGUACHE       LGT SNOW  34  32  93 CALM      29.85F VSB 1
$$

COZ035-036-038>040-292000-
...NORTHERN COLORADO FRONT RANGE...

CITY           SKY/WX    TMP DP  RH WIND       PRES   REMARKS
DENVER INTL AP SNOW      33  30  88 NE8       29.94S VSB 1/4 WCI  26
DMNS CITY PARK   N/A     33  33  99 NE3G14    29.94R
AURORA         LGT SNOW  32  32 100 NE6       29.94R VSB 1   WCI  26
FRONT RANGE AP SNOW      32  32 100 NE7       29.94F VSB 1/2 WCI  26
ERIE MUNI ARPT LGT SNOW  34  34 100 E3        29.94F
BOULDER MUN AP LGT SNOW  32  32 100 CALM      29.94S VSB 3/4
CENTENNIAL     SNOW      33  32  96 N5        29.92S VSB 1/2 WCI  29
BROOMFIELD     SNOW      34  34 100 MISG      29.94F VSB 1/2
FORT COLLINS   CLOUDY    36  34  93 E9        29.96S
LONGMONT       LGT SNOW  36  34  94 E3        29.97S
$$

COZ041-046-047-076>085-087-088-292000-
...PIKES PEAK/PALMER DIVIDE AND SOUTHERN FOOTHILLS...

CITY           SKY/WX    TMP DP  RH WIND       PRES   REMARKS
COLO. SPRINGS  SNOW      34  32  92 E5        29.92S VSB 1/4 WCI  30
A. F. ACADEMY  LGT SNOW  32  32 100 N7        29.89F FOG     WCI  26
SCHRIEVER AFB  NOT AVBL
ELLICOTT       NOT AVBL
FALCON         SNOW      36  32  87 NE8       29.91R VSB 1/4
FORT CARSON    LGT SNOW  32  32 100 E3        29.90R VSB 3/4
LIMON          SNOW      33  31  92 N10       29.91F VSB 1/2 WCI  25
MONUMENT HILL  SNOW      32  30  93 CALM      29.91S VSB 1/2
TRINIDAD       LGT SNOW  35  30  82 N9        29.87F WCI  28
$$

COZ042>045-048>051-090-091-292000-
...NORTHEAST COLORADO...

CITY           SKY/WX    TMP DP  RH WIND       PRES   REMARKS
GREELEY ARPT   CLOUDY    36  34  93 E7        29.97S
AKRON          LGT SNOW  33  32  96 NE10      29.96S VSB 3/4 WCI  25
BURLINGTON     RAIN      37  34  89 NE18G26   29.89F FOG
WRAY           NOT AVBL
STERLING       RAIN      37  36  93 E7        29.98R
HOLYOKE        NOT AVBL
FORT MORGAN    LGT SNOW  32  32  99 E7        29.98R VSB 3/4 WCI  26
$$

COZ086-089-092>099-292000-
...SOUTHEAST COLORADO...

CITY           SKY/WX    TMP DP  RH WIND       PRES   REMARKS
PUEBLO         LGT SNOW  34  31  88 NW3       29.91F FOG
LA JUNTA       LGT SNOW  33  32  96 N10       29.91F VSB 1   WCI  25
LAMAR          HVY RAIN  40  38  93 NW8       29.89R FOG
SPRINGFIELD      N/A     39  37  92 N9        29.84F
$$




USA.gov is the U.S. government's official web portal to all federal, state and local government web resources and services.